Probability
26 23 10 3 3 0 0 0 0 0 3 6 0 0 3 0 3 6 6 6 10 6 6 6 6 3 3 3 3 0 0 0 0 0 0 0 0 0 0 0 0 0 0 0
16 3 0 3 6 10 0 0 0 0 3 0 0 0 3 10 6 6 6 3 3 0 3 10 6 3 3 3 0 0 0 0 0 3 0 0 0 0 0 0 0 0 0 0
3 0 3 10 10 3 0 0 0 0 0 0 0 0 0 3 3 6 3 10 3 3 3 6 3 3 3 3 0 0 0 0 0 0 0 0 0 0 0 0 0 0 0 3
0 0 3 3 3 0 0 0 0 0 0 0 0 0 0 0 0 3 10 6 6 3 6 6 3 3 3 3 0 0 0 0 0 0 0 0 0 0 0 0 0 0 0 3
0 0 0 0 3 3 0 0 0 0 0 0 0 0 0 0 0 0 0 6 6 6 6 6 3 3 3 0 0 0 0 0 0 0 0 0 0 0 0 0 0 0 0 3
0 3 0 0 3 0 0 0 0 0 0 0 0 0 0 0 0 0 0 0 3 3 3 3 3 0 0 0 0 0 0 0 0 0 0 0 0 0 0 0 0 0 0 0
0 0 3 3 3 0 0 0 0 0 0 0 0 0 0 0 0 0 0 0 0 3 3 3 0 0 0 0 0 0 0 0 0 0 0 0 0 0 0 0 0 0 0 0
0 0 0 3 0 0 0 0 0 0 0 0 0 0 0 0 0 0 0 0 0 0 6 3 0 0 0 0 0 0 0 0 0 0 0 0 0 0 0 0 0 0 0 0
0 0 0 0 0 0 0 0 0 0 0 0 0 0 0 0 0 0 0 0 0 0 0 0 0 0 0 0 0 0 0 0 0 0 0 0 0 0 0 0 0 0 0 0
0 0 0 0 0 0 0 0 0 0 0 0 0 0 0 0 0 0 0 0 0 0 0 0 0 0 0 0 0 0 0 0 0 0 0 0 0 0 0 0 0 0 0 0
0 0 0 0 0 0 0 0 0 0 0 0 0 0 0 0 0 0 0 0 0 0 0 0 0 0 0 0 0 0 0 0 0 0 0 0 0 0 0 0 0 0 0 0
0 0 0 0 0 0 0 0 0 0 0 0 0 0 0 0 0 0 0 0 0 0 0 0 0 0 0 0 0 0 0 0 0 0 0 0 0 0 0 0 0 0 0 0
0 0 0 0 0 0 0 0 0 0 0 0 0 0 0 0 0 0 0 0 0 0 0 0 0 0 0 0 0 0 0 0 0 0 0 0 0 0 0 0 0 0 0 0
0 0 0 0 0 0 0 0 0 0 0 0 0 0 0 0 0 0 0 0 0 0 0 0 0 0 0 0 0 0 0 0 0 0 0 0 0 0 0 0 0 0 0 0
0 0 0 0 0 0 0 0 0 0 0 0 0 0 0 0 0 0 0 0 0 0 0 0 0 0 0 0 0 0 0 0 0 0 0 0 0 0 0 0 0 0 0 0
0 0 0 0 0 0 0 0 0 0 0 0 0 0 0 0 0 0 0 0 0 0 0 0 0 0 0 0 0 0 0 0 0 0 0 0 0 0 0 0 0 0 0 0
0 0 0 0 0 0 0 0 0 0 0 0 0 0 0 0 0 0 0 0 0 0 0 0 0 0 0 0 0 0 0 0 0 0 0 0 0 0 0 0 0 0 0 0
0 0 0 0 0 0 0 0 0 0 0 0 0 0 0 0 0 0 0 0 0 0 0 0 0 0 0 0 0 0 0 0 0 0 0 0 0 0 0 0 0 0 0 0
0 0 0 0 0 0 0 0 0 0 0 0 0 0 0 0 0 0 0 0 0 0 0 0 0 0 0 0 0 0 0 0 0 0 0 0 0 0 0 0 0 0 0 0
0 0 0 0 0 0 0 0 0 0 0 0 0 0 0 0 0 0 0 0 0 0 0 0 0 0 0 0 0 0 0 0 0 0 0 0 0 0 0 0 0 0 0 0
0 0 0 0 0 0 0 0 0 0 0 0 0 0 0 0 0 0 0 0 0 0 0 0 0 0 0 0 0 0 0 0 0 0 0 0 0 0 0 0 0 0 0 0
0 0 0 0 0 0 0 0 0 0 0 0 0 0 0 0 0 0 0 0 0 0 0 0 0 0 0 0 0 0 0 0 0 0 0 0 0 0 0 0 0 0 0 0
0 0 0 0 0 0 0 0 0 0 0 0 0 0 0 0 0 0 0 0 0 0 0 0 0 0 0 0 0 0 0 0 0 0 0 0 0 0 0 0 0 0 0 0
0 0 0 0 0 0 0 0 0 0 0 0 0 0 0 0 0 0 0 0 0 0 0 0 0 0 0 0 0 0 0 0 0 0 0 0 0 0 0 0 0 0 0 0
0 0 0 0 0 0 0 0 0 0 0 0 0 0 0 0 0 0 0 0 0 0 0 0 0 0 0 0 0 0 0 0 0 0 0 0 0 0 0 0 0 0 0 0
0 0 0 0 0 0 0 0 0 0 0 0 0 0 0 0 0 0 0 0 0 0 0 0 0 0 0 0 0 0 0 0 0 0 0 0 0 0 0 0 0 0 0 0
Height
5832 5836 5839 5842 5844 5848 5850 5852 5854 5855 5855 5857 5857 5858 5858 5858 5858 5858 5858 5858 5858 5858 5857 5856 5854 5853 5851 5849 5846 5843 5839 5836 5831 5827 5823 5819 5814 5810 5805 5800 5795 5790 5785 5781
5830 5833 5835 5837 5840 5844 5847 5849 5851 5852 5852 5854 5855 5855 5855 5856 5856 5856 5856 5856 5856 5856 5855 5854 5853 5851 5850 5847 5845 5842 5838 5834 5830 5825 5821 5817 5812 5808 5802 5797 5792 5787 5782 5778
5826 5830 5831 5834 5838 5841 5844 5846 5847 5849 5850 5851 5853 5854 5853 5854 5854 5854 5854 5854 5854 5854 5853 5853 5851 5850 5848 5846 5843 5840 5837 5833 5828 5824 5819 5815 5810 5806 5800 5795 5790 5785 5779 5775
5823 5826 5829 5832 5835 5838 5841 5843 5844 5846 5848 5849 5851 5851 5851 5851 5852 5852 5852 5852 5852 5852 5852 5851 5850 5848 5847 5844 5842 5839 5835 5831 5827 5823 5818 5814 5809 5804 5799 5793 5788 5783 5777 5772
5821 5824 5827 5830 5833 5835 5838 5840 5842 5844 5845 5847 5848 5849 5850 5849 5850 5850 5850 5850 5850 5850 5850 5849 5848 5847 5845 5843 5840 5838 5834 5830 5826 5822 5817 5812 5808 5802 5797 5792 5787 5781 5776 5771
5820 5822 5825 5828 5830 5833 5836 5838 5840 5841 5843 5845 5846 5847 5848 5847 5848 5848 5848 5848 5848 5848 5848 5847 5846 5845 5843 5841 5839 5836 5833 5829 5825 5821 5816 5812 5807 5801 5796 5791 5785 5780 5775 5769
5819 5821 5824 5826 5829 5832 5834 5837 5839 5841 5842 5843 5844 5844 5846 5845 5845 5846 5846 5846 5846 5846 5845 5845 5844 5843 5842 5840 5837 5835 5832 5828 5824 5820 5816 5811 5806 5801 5795 5790 5785 5779 5774 5769
5819 5822 5823 5825 5828 5830 5832 5835 5838 5840 5841 5841 5841 5842 5843 5843 5843 5843 5844 5844 5844 5844 5843 5843 5842 5841 5840 5838 5836 5833 5830 5827 5823 5819 5815 5810 5805 5800 5795 5790 5784 5779 5774 5769
5818 5821 5823 5824 5827 5829 5831 5833 5835 5837 5838 5839 5839 5840 5840 5840 5840 5841 5841 5841 5841 5841 5841 5841 5840 5839 5838 5836 5834 5832 5829 5826 5822 5818 5814 5810 5805 5800 5795 5789 5784 5779 5774 5769
5818 5820 5822 5824 5826 5828 5830 5831 5833 5835 5835 5837 5837 5838 5838 5838 5838 5838 5838 5839 5839 5839 5839 5839 5838 5837 5836 5834 5833 5830 5828 5825 5821 5818 5813 5809 5804 5800 5795 5789 5784 5779 5774 5769
5818 5820 5822 5823 5825 5826 5828 5830 5831 5832 5833 5834 5835 5837 5835 5835 5835 5835 5836 5836 5836 5836 5836 5836 5836 5835 5834 5832 5831 5828 5826 5823 5820 5816 5813 5809 5804 5800 5795 5790 5785 5780 5775 5770
5818 5820 5821 5822 5823 5824 5826 5827 5829 5831 5831 5831 5832 5835 5832 5832 5832 5832 5833 5833 5833 5834 5834 5833 5833 5833 5832 5830 5829 5827 5824 5822 5819 5815 5812 5808 5804 5799 5795 5790 5785 5780 5775 5770
5818 5819 5821 5822 5824 5824 5824 5825 5826 5827 5828 5829 5829 5832 5829 5829 5829 5829 5830 5830 5830 5831 5831 5831 5831 5830 5829 5828 5826 5825 5822 5820 5817 5814 5811 5807 5803 5799 5794 5790 5785 5781 5776 5771
5817 5818 5820 5821 5820 5821 5822 5822 5823 5824 5825 5826 5826 5827 5826 5826 5826 5826 5826 5827 5827 5828 5828 5828 5828 5827 5827 5825 5824 5822 5820 5818 5815 5812 5809 5806 5802 5798 5794 5790 5785 5781 5777 5772
5815 5816 5816 5817 5818 5818 5819 5820 5820 5821 5822 5823 5823 5823 5823 5823 5823 5823 5823 5823 5824 5824 5825 5825 5825 5824 5824 5823 5821 5820 5818 5816 5813 5811 5808 5804 5801 5797 5793 5790 5785 5781 5777 5773
5813 5814 5814 5815 5815 5815 5816 5816 5817 5817 5818 5819 5819 5819 5819 5819 5819 5819 5820 5820 5821 5821 5821 5822 5821 5821 5820 5820 5819 5817 5815 5813 5811 5809 5806 5803 5799 5796 5793 5789 5785 5781 5777 5773
5811 5811 5812 5812 5812 5812 5813 5813 5813 5813 5814 5814 5815 5816 5815 5815 5815 5816 5816 5816 5817 5817 5818 5818 5818 5818 5817 5816 5815 5814 5813 5811 5809 5806 5804 5801 5798 5795 5791 5788 5785 5781 5777 5773
5808 5808 5808 5808 5809 5809 5811 5809 5809 5809 5809 5809 5810 5810 5810 5811 5811 5811 5812 5812 5813 5813 5814 5814 5814 5814 5813 5813 5812 5811 5809 5808 5806 5804 5801 5799 5796 5793 5790 5787 5783 5780 5777 5773
5805 5804 5804 5805 5804 5804 5806 5804 5804 5804 5804 5805 5805 5805 5805 5806 5806 5807 5807 5808 5808 5809 5809 5809 5810 5810 5809 5809 5808 5807 5806 5804 5803 5801 5799 5796 5793 5791 5788 5785 5782 5779 5775 5772
5800 5800 5800 5800 5799 5800 5801 5800 5799 5800 5800 5799 5799 5800 5800 5801 5802 5803 5803 5803 5803 5804 5804 5805 5805 5805 5805 5805 5804 5803 5802 5801 5799 5797 5795 5793 5791 5788 5785 5783 5780 5777 5774 5771
5795 5794 5794 5794 5793 5794 5795 5794 5794 5796 5795 5794 5794 5794 5795 5796 5797 5797 5797 5798 5798 5799 5799 5800 5800 5800 5800 5800 5800 5799 5798 5797 5795 5794 5792 5790 5788 5785 5783 5780 5777 5775 5772 5769
5789 5789 5789 5788 5788 5790 5788 5788 5788 5789 5788 5788 5788 5789 5789 5790 5791 5791 5792 5792 5793 5793 5794 5794 5795 5795 5795 5795 5795 5794 5793 5792 5791 5790 5788 5786 5784 5782 5780 5777 5775 5772 5769 5767
5782 5782 5781 5782 5783 5782 5781 5781 5781 5781 5781 5782 5782 5783 5784 5784 5785 5785 5786 5787 5787 5788 5788 5789 5789 5790 5790 5790 5790 5789 5788 5788 5786 5785 5784 5782 5780 5778 5776 5774 5771 5769 5766 5764
5773 5773 5773 5773 5774 5773 5773 5773 5773 5774 5774 5775 5775 5776 5777 5778 5779 5779 5780 5780 5781 5782 5782 5783 5783 5784 5784 5784 5784 5784 5783 5782 5781 5780 5779 5778 5776 5774 5772 5770 5767 5765 5763 5760
5763 5763 5763 5764 5765 5764 5764 5764 5764 5765 5766 5766 5767 5768 5769 5770 5771 5772 5773 5774 5774 5775 5776 5776 5777 5777 5778 5778 5778 5778 5777 5777 5776 5775 5774 5772 5771 5769 5767 5765 5763 5761 5759 5756
5753 5753 5752 5753 5754 5753 5754 5754 5754 5755 5756 5757 5759 5760 5761 5762 5763 5764 5765 5766 5767 5768 5768 5769 5770 5770 5771 5771 5771 5771 5771 5770 5770 5769 5768 5767 5765 5764 5762 5760 5758 5756 5754 5752
Wind_Speed
17 17 16 16 17 18 17 16 15 15 15 14 12 11 11 11 10 9 8 8 8 8 8 8 8 8 9 10 11 13 15 17 17 18 18 19 20 21 22 22 22 20 19 18
15 15 16 18 18 17 16 15 15 15 15 13 11 11 11 10 10 9 9 9 8 8 8 8 8 8 8 9 11 13 15 16 18 18 19 19 20 21 22 22 22 21 20 19
14 15 17 18 17 16 15 15 15 15 14 12 10 10 10 10 10 9 9 8 8 8 8 7 7 7 8 9 11 13 14 16 18 18 19 19 20 21 22 22 22 21 20 19
14 15 16 16 15 15 15 15 14 14 12 11 10 10 10 10 10 9 9 8 8 8 7 7 7 7 8 9 11 12 14 16 18 19 19 20 21 21 22 22 22 22 21 20
12 13 14 15 15 15 14 14 13 12 11 10 10 10 10 10 10 9 8 8 8 7 7 7 7 7 8 9 10 12 14 16 18 19 19 20 21 21 22 22 22 22 21 20
11 12 14 14 15 14 14 13 13 11 10 10 9 9 10 10 10 9 8 8 8 7 7 7 7 8 8 9 10 12 13 15 17 19 20 20 21 21 22 22 22 22 21 20
10 11 13 13 13 13 14 12 11 10 10 10 9 9 9 10 10 9 9 8 8 8 7 7 7 8 8 9 10 11 13 15 16 18 20 21 21 22 22 22 22 21 21 20
9 11 12 12 12 12 12 11 11 10 10 10 9 10 10 10 10 10 9 8 8 8 8 7 7 7 8 9 10 11 13 14 16 18 19 21 22 22 22 23 22 21 20 20
9 10 11 11 12 12 11 10 10 10 10 10 9 9 10 11 11 11 10 9 9 8 8 8 7 7 8 9 10 11 12 14 15 17 19 20 21 22 22 22 22 22 21 20
7 9 10 11 11 12 11 10 10 10 9 8 9 10 11 11 12 11 11 10 9 9 9 8 7 7 8 9 9 10 12 13 15 16 18 19 21 22 22 22 22 22 21 20
6 8 9 10 10 10 10 9 9 9 9 8 9 11 11 12 12 12 12 11 10 10 9 8 8 8 8 9 9 10 11 13 14 15 17 18 20 21 21 21 22 22 21 21
6 8 9 9 9 9 10 10 9 9 9 9 10 11 11 12 12 12 12 12 11 11 10 9 9 8 8 9 9 10 11 13 14 15 16 17 18 20 21 21 21 21 21 21
5 7 8 9 9 9 10 10 10 10 10 10 10 11 12 12 13 13 13 12 11 11 11 10 9 9 9 9 10 10 11 12 13 15 16 17 18 19 20 20 21 21 21 21
5 7 9 10 11 10 11 11 11 11 11 11 11 11 12 12 12 12 13 12 12 11 11 11 10 10 10 10 10 11 11 12 13 14 15 16 17 18 19 19 20 20 20 20
5 7 9 11 11 11 12 13 13 13 12 12 12 13 13 13 13 13 13 13 13 12 12 11 11 11 11 11 11 11 11 12 13 14 15 16 16 17 17 18 18 19 19 20
7 8 9 11 12 12 13 14 15 14 14 14 14 14 15 15 15 14 14 14 14 13 13 13 12 12 12 11 11 12 12 12 13 14 15 15 16 16 16 17 17 18 18 19
9 10 11 12 14 15 14 14 15 16 16 16 15 14 16 16 16 15 15 15 15 15 14 14 13 13 13 12 12 12 12 13 13 14 14 15 15 16 15 16 16 17 17 17
11 12 13 13 14 16 15 15 16 17 17 18 17 17 17 17 16 16 16 16 15 15 15 15 15 14 14 13 13 13 13 13 13 14 14 15 15 15 15 15 15 16 16 16
14 14 15 15 16 16 15 16 17 18 18 18 18 18 18 18 17 16 16 16 16 16 16 16 15 15 15 14 14 14 14 14 14 14 14 14 15 15 15 15 15 15 15 16
16 17 18 18 18 17 16 17 18 18 19 19 19 19 19 18 18 17 17 17 17 17 17 17 16 16 16 15 15 15 14 14 14 14 14 15 15 15 15 15 15 15 15 15
19 19 20 20 20 19 18 18 19 19 19 19 20 20 19 19 19 18 18 18 18 17 17 17 17 17 17 16 16 16 15 15 15 15 15 15 15 15 15 15 15 15 16 16
22 22 22 22 23 22 21 21 21 20 21 21 21 21 20 19 19 19 19 19 19 18 18 18 18 18 18 17 17 17 16 16 16 16 16 16 16 16 16 16 16 16 16 16
24 25 25 25 25 25 24 24 23 23 22 22 22 21 21 21 20 20 20 20 20 20 20 20 19 19 19 18 18 18 17 17 17 17 17 17 17 17 17 17 17 17 17 17
27 27 27 27 27 27 27 27 26 26 25 24 24 23 23 22 22 21 21 21 21 21 21 21 21 20 20 20 19 19 19 18 18 18 18 18 18 18 18 17 17 17 18 17
30 30 30 30 29 30 30 30 29 29 28 27 26 25 25 24 24 23 23 22 23 22 22 22 22 22 22 21 21 20 20 20 19 19 19 19 19 19 19 18 18 18 18 18
33 33 34 33 32 33 32 33 32 32 31 31 30 29 28 28 26 26 25 24 24 24 24 24 24 23 23 23 22 22 22 21 21 21 20 20 20 20 20 19 19 19 19 19
Wind_Direction
236 233 230 228 227 228 232 236 241 246 252 257 261 263 262 263 265 269 271 272 275 281 289 298 304 311 320 330 336 339 343 345 345 344 344 345 345 345 344 343 342 338 333 328
229 224 221 221 222 225 229 234 238 244 249 253 260 262 258 259 260 263 267 268 273 279 285 294 301 309 319 328 334 341 345 348 348 347 346 346 347 347 347 346 346 343 339 334
221 219 218 220 219 221 226 230 236 243 248 251 256 258 259 260 260 262 265 266 269 274 280 287 295 306 316 325 334 341 346 349 351 350 349 349 349 349 349 348 347 345 343 340
215 215 215 216 216 220 223 228 234 240 245 249 252 252 257 257 259 262 263 264 266 270 274 280 290 303 314 325 335 341 346 349 351 352 352 352 352 351 351 351 351 349 347 346
212 210 210 212 214 217 219 225 233 240 247 254 254 251 251 252 254 257 260 261 264 266 269 276 289 301 313 324 333 340 345 349 352 353 354 354 354 354 354 354 354 354 353 352
206 205 205 209 213 216 221 226 234 240 249 257 253 248 248 251 253 256 259 259 260 263 267 275 288 300 311 322 332 340 346 350 353 355 356 356 356 356 356 356 356 356 356 357
203 203 205 208 212 217 221 226 233 244 252 253 250 249 249 250 252 253 255 256 258 262 265 274 286 296 308 320 331 339 345 349 353 356 358 359 359 359 359 359 358 358 359 360
196 204 205 206 209 214 220 223 228 239 251 255 252 250 250 251 252 253 254 256 258 260 262 271 282 292 305 318 329 336 343 348 352 355 358 359 360 360 0 1 1 0 0 2
191 204 205 209 212 216 220 224 232 240 248 251 250 247 250 250 252 254 255 257 257 256 259 267 277 289 303 316 326 333 340 347 350 354 357 358 0 1 1 2 3 4 3 2
193 203 208 212 215 217 218 224 236 242 250 254 251 251 252 251 254 254 254 256 256 253 257 262 273 287 301 313 322 329 337 343 348 352 355 358 0 2 2 3 4 5 5 5
201 208 213 217 220 221 219 225 236 242 248 253 256 255 252 253 254 255 254 255 254 252 254 262 271 284 297 309 316 324 332 339 344 348 352 356 359 1 3 4 5 6 8 8
212 211 216 224 224 226 229 231 238 246 253 255 258 257 254 255 255 255 254 254 253 250 251 259 269 279 292 303 311 319 327 335 340 344 348 352 356 359 1 3 5 7 9 10
221 215 222 231 229 233 238 239 241 246 250 255 258 260 257 256 256 256 256 254 252 250 251 257 264 275 287 297 306 315 322 330 337 340 344 348 353 356 359 1 4 7 8 9
245 233 230 229 234 239 242 243 244 246 250 254 257 258 258 258 256 255 255 253 252 251 252 257 263 271 283 291 299 308 316 324 332 337 341 345 349 352 356 359 2 5 7 8
255 249 241 238 241 246 248 248 249 249 251 255 257 259 258 260 258 255 254 252 251 252 253 258 265 271 279 287 295 303 311 319 326 332 338 342 345 348 351 354 357 1 4 6
265 258 249 245 248 251 253 251 252 251 255 259 259 259 258 259 257 256 256 254 252 252 254 258 264 271 277 283 291 299 307 314 320 327 333 338 341 345 347 350 353 357 360 2
268 266 259 253 253 255 257 255 255 254 256 260 260 258 256 257 257 256 256 255 253 253 255 258 263 269 274 280 287 294 301 307 314 321 326 332 337 340 343 345 349 352 356 360
269 266 264 262 260 260 260 257 257 258 259 260 262 261 259 259 258 257 256 255 254 253 256 258 262 266 271 276 283 289 295 301 308 315 321 327 331 335 338 341 344 347 351 355
271 269 267 265 265 263 260 260 260 260 261 262 263 262 261 259 258 256 255 254 254 255 255 257 260 265 269 274 279 285 291 297 303 309 315 322 326 331 334 337 339 342 345 348
269 269 269 268 266 263 262 260 260 261 261 261 261 261 260 259 258 256 255 254 254 255 255 257 259 262 266 271 276 281 287 292 298 304 309 315 320 324 328 331 334 337 340 344
269 268 268 268 267 266 264 263 261 260 261 260 259 259 258 258 257 256 254 254 254 254 255 257 259 262 265 269 273 278 283 288 294 300 305 309 314 318 321 324 328 332 334 337
268 267 267 266 266 267 267 264 262 261 261 261 260 259 258 257 257 256 256 256 256 256 256 257 259 261 264 268 271 275 279 285 290 295 300 304 308 312 315 317 321 324 327 330
266 266 266 265 266 267 266 265 263 262 262 261 260 259 257 257 258 258 258 258 258 257 257 258 259 261 263 266 269 273 277 281 286 290 295 300 304 307 310 312 314 317 319 322
266 265 264 263 263 264 264 264 263 262 262 260 259 257 256 256 257 258 259 259 259 258 258 259 260 261 263 265 268 271 275 279 283 287 291 296 299 303 306 308 310 312 314 316
265 264 264 264 263 262 262 262 261 260 259 258 257 255 254 255 256 258 260 260 259 259 258 258 260 262 263 265 267 270 273 277 281 284 288 292 296 299 301 304 306 309 310 312
265 264 264 263 261 260 259 259 260 260 259 258 257 256 255 255 256 258 259 259 259 258 258 259 259 261 263 265 267 269 272 275 278 281 285 288 292 294 297 299 302 305 307 308